Broomfield, CO

5:20 AM MDT on April 20, 2018 (GMT -0600)
Jeffco

Weather History for KBJC - February, 2014

Change the Weather History Date:

Friday, February 7, 2014

  Actual Average Record
Temperature  
Mean Temperature 17 °F -  
Max Temperature 39 °F 42 °F 73 °F (2015)
Min Temperature -5 °F 22 °F -5 °F (2014)
Degree Days  
Heating Degree Days 48    
Moisture  
Dew Point 5 °F    
Average Humidity 67    
Maximum Humidity 85    
Minimum Humidity 42    
Precipitation  
Precipitation 0.00 in - - ()
Sea Level Pressure  
Sea Level Pressure 29.77 in    
Wind  
Wind Speed 3 mph (WSW)    
Max Wind Speed 22 mph    
Max Gust Speed 28 mph    
Visibility 13 miles    
Events      
Averages and records for this station are not official NWS values.
T = Trace of Precipitation, MM = Missing Value Source: NWS Daily Summary

Daily Weather History Graph

Daily Weather History Graph

Search for Another Location

Airport or City:

Astronomy

Feb. 07, 2014 Rise Set
Actual Time 7:02 AM MST 5:27 PM MST
Civil Twilight 6:34 AM MST 5:55 PM MST
Nautical Twilight 6:02 AM MST 6:27 PM MST
Astronomical Twilight 5:30 AM MST 6:58 PM MST
Moon 11:40 AM MST (2/7) 1:20 AM MST (2/7)
Length of Visible Light 11h 20m
Length of Day
10h 24m
First Quarter, 60% of the Moon is Illuminated
Feb 7
First Quarter
Feb 14
Full
Feb 22
Last Quarter
Mar 1
New
Mar 8
First Quarter

Hourly Weather History & Observations

Time (MST) Temp. Windchill Dew Point Humidity Pressure Visibility Wind Dir Wind Speed Gust Speed Precip Events Conditions
12:15 AM -5.8 °F - -9.4 °F 84% 29.79 in 10.0 mi Calm Calm - N/A   Clear
12:35 AM -4.0 °F - -7.6 °F 85% 29.79 in 10.0 mi Calm Calm - N/A   Clear
12:55 AM -4.0 °F - -9.4 °F 78% 29.78 in 10.0 mi Calm Calm - N/A   Clear
1:15 AM -4.0 °F - -9.4 °F 78% 29.78 in 10.0 mi Calm Calm - N/A   Clear
1:35 AM -4.0 °F - -9.4 °F 78% 29.77 in 10.0 mi Calm Calm - N/A   Clear
1:54 AM -5.8 °F - -9.4 °F 84% 29.78 in 10.0 mi Calm Calm - N/A   Clear
2:15 AM -4.0 °F - -7.6 °F 85% 29.77 in 10.0 mi Calm Calm - N/A   Clear
2:35 AM -4.0 °F - -7.6 °F 85% 29.76 in 10.0 mi Calm Calm - N/A   Clear
2:55 AM -4.0 °F -12.4 °F -7.6 °F 85% 29.77 in 10.0 mi West 3.5 mph - N/A   Clear
3:15 AM -4.0 °F - -7.6 °F 85% 29.76 in 10.0 mi Calm Calm - N/A   Clear
3:35 AM -4.0 °F - -7.6 °F 85% 29.77 in 10.0 mi Calm Calm - N/A   Clear
3:55 AM -4.0 °F - -7.6 °F 85% 29.76 in 10.0 mi Calm Calm - N/A   Clear
4:15 AM -2.2 °F - -7.6 °F 78% 29.75 in 10.0 mi Calm Calm - N/A   Clear
4:35 AM -2.2 °F - -7.6 °F 78% 29.76 in 10.0 mi Calm Calm - N/A   Scattered Clouds
4:55 AM -2.2 °F - -7.6 °F 78% 29.76 in 10.0 mi Calm Calm - N/A   Clear
5:47 AM -2.2 °F -15.6 °F -7.6 °F 78% 29.75 in 10.0 mi SSW 6.9 mph - N/A   Scattered Clouds
6:53 AM -0.4 °F -10.4 °F -5.8 °F 78% 29.75 in 20.0 mi Variable 4.6 mph - N/A   Scattered Clouds
7:47 AM 8.6 °F 0.1 °F 1.4 °F 73% 29.76 in 20.0 mi Variable 4.6 mph - N/A   Scattered Clouds
8:55 AM 8.6 °F - -0.4 °F 67% 29.77 in 20.0 mi Calm Calm - N/A   Partly Cloudy
9:47 AM 10.4 °F - 1.4 °F 67% 29.77 in 20.0 mi Calm Calm - N/A   Partly Cloudy
10:47 AM 23.0 °F 17.0 °F 10.4 °F 59% 29.76 in 20.0 mi Variable 4.6 mph - N/A   Scattered Clouds
11:46 AM 33.8 °F 29.6 °F 17.6 °F 52% 29.74 in 20.0 mi SSW 4.6 mph - N/A   Scattered Clouds
12:53 PM 35.6 °F 30.7 °F 17.6 °F 48% 29.71 in 20.0 mi South 5.8 mph - N/A   Mostly Cloudy
1:45 PM 39.2 °F - 17.6 °F 42% 29.69 in 20.0 mi Calm Calm - N/A   Scattered Clouds
2:47 PM 39.2 °F 31.2 °F 19.4 °F 45% 29.70 in 40.0 mi WNW 13.8 mph 23.0 mph N/A   Mostly Cloudy
3:47 PM 39.2 °F 29.6 °F 23.0 °F 52% 29.74 in 40.0 mi West 19.6 mph 26.5 mph N/A   Mostly Cloudy
4:47 PM 37.4 °F 26.6 °F 23.0 °F 56% 29.74 in 40.0 mi West 21.9 mph 26.5 mph N/A   Mostly Cloudy
5:57 PM 35.6 °F 25.2 °F 21.2 °F 56% 29.77 in 40.0 mi WNW 18.4 mph 23.0 mph N/A   Mostly Cloudy
6:56 PM 33.8 °F 24.8 °F 21.2 °F 60% 29.78 in 30.0 mi West 12.7 mph - N/A   Mostly Cloudy
7:45 PM 33.8 °F 29.6 °F 17.6 °F 52% 29.78 in 15.0 mi SW 4.6 mph - N/A   Mostly Cloudy
8:47 PM 32.0 °F - 19.4 °F 60% 29.79 in 15.0 mi Calm Calm - N/A   Mostly Cloudy
9:47 PM 33.8 °F 30.8 °F 19.4 °F 56% 29.80 in 15.0 mi South 3.5 mph - N/A   Mostly Cloudy
10:15 PM 33.8 °F - 19.4 °F 56% 29.80 in 10.0 mi Calm Calm - N/A   Clear
10:35 PM 33.8 °F - 19.4 °F 56% 29.79 in 10.0 mi Calm Calm - N/A   Clear
10:55 PM 33.8 °F 23.2 °F 17.6 °F 52% 29.78 in 10.0 mi West 17.3 mph 21.9 mph N/A   Clear
11:14 PM 35.6 °F 25.5 °F 17.6 °F 48% 29.79 in 10.0 mi WNW 17.3 mph - N/A   Clear
11:35 PM 35.6 °F 25.2 °F 17.6 °F 48% 29.79 in 10.0 mi WNW 18.4 mph 27.6 mph N/A   Clear
11:54 PM 33.8 °F 25.8 °F 17.6 °F 52% 29.80 in 10.0 mi West 10.4 mph - N/A   Clear